Torna al catalogo

ONEWEB-0227

AttivoComunicazioniPO
NORAD 48792·PAYLOAD·🇬🇧 United Kingdom

Lanciato May 28, 2021 da Vostochny Cosmodrome

Loading…

Prossimi Passaggi (prossime 24 ore)

TLE

AggiornatoSource: CelesTrak SupGP

Epoca: Sep 14, 2026, 16:11 UTC

1 48792C 21045AB  26257.67446019 -.00000176  00000+0 -46766-3 0  2575
2 48792  87.8982 241.3490 0002025  83.5618  20.3259 13.15545345    15

Traccia ONEWEB-0227 in tempo reale con AllMySat

Download on the App Store